Weather History for KPNS - September, 2012

Change the Weather History Date:

Monday, September 3, 2012

  Actual Average Record
Temperature  
Mean Temperature 86 °F 81 °F  
Max Temperature 92 °F 89 °F 96 °F (1997)
Min Temperature 79 °F 73 °F 64 °F (1995)
Cooling Degree Days 21 16  
Month to date cooling degree days 58 48  
Year to date cooling degree days 2437 2015  
Growing Degree Days 35 (Base 50)    
Moisture  
Dew Point 75 °F    
Average Humidity 72    
Maximum Humidity 91    
Minimum Humidity 52    
Precipitation  
Precipitation 0.00 in 0.21 in 4.39 in (1929)
Month to date precipitation 0.00 0.62  
Year to date precipitation 57.39 45.39  
Sea Level Pressure  
Sea Level Pressure 30.00 in    
Wind  
Wind Speed 9 mph (SW)    
Max Wind Speed 16 mph    
Max Gust Speed 22 mph    
Visibility 10 miles    
Events      
T = Trace of Precipitation, MM = Missing Value Source: NWS Daily Summary

Daily Weather History Graph

Daily Weather History Graph

Search for Another Location

Airport or City:

Trip Planner

Search our weather history database for the weather conditions in past years. The results will help you decide how hot, cold, wet, or windy it might be!

Date:

Astronomy

Sep. 03, 2012 Rise Set
Actual Time 6:26 AM CDT 7:08 PM CDT
Civil Twilight 6:02 AM CDT 7:32 PM CDT
Nautical Twilight 5:33 AM CDT 8:01 PM CDT
Astronomical Twilight 5:04 AM CDT 8:30 PM CDT
Moon 8:47 PM CDT (9/3) 9:16 AM CDT (9/3)
Length of Visible Light 13h 30m
Length of Day
12h 41m
Waning Gibbous, 90% of the Moon is Illuminated
Sep 3
Waning Gibbous
Sep 8
Last Quarter
Sep 15
New
Sep 22
First Quarter
Sep 29
Full

Hourly Weather History & Observations

Time (CDT) Temp. Heat Index Dew Point Humidity Pressure Visibility Wind Dir Wind Speed Gust Speed Precip Events Conditions
12:53 AM 81.0 °F 86.7 °F 75.0 °F 82% 30.01 in 10.0 mi WSW 6.9 mph - N/A   Clear
1:53 AM 80.1 °F 85.1 °F 75.0 °F 85% 29.99 in 10.0 mi SW 6.9 mph - N/A   Clear
2:53 AM 80.1 °F 85.1 °F 75.0 °F 85% 29.98 in 10.0 mi WSW 6.9 mph - N/A   Clear
3:53 AM 80.1 °F 85.1 °F 75.0 °F 85% 29.98 in 10.0 mi SW 5.8 mph - N/A   Clear
4:53 AM 79.0 °F - 75.9 °F 90% 29.99 in 10.0 mi WSW 4.6 mph - 0.01 in   Clear
5:53 AM 80.1 °F 85.4 °F 75.9 °F 87% 30.00 in 10.0 mi SW 4.6 mph - 0.01 in   Clear
6:53 AM 80.1 °F 85.8 °F 77.0 °F 90% 30.03 in 10.0 mi WSW 3.5 mph - 0.02 in   Mostly Cloudy
7:53 AM 82.0 °F 90.2 °F 77.0 °F 85% 30.02 in 10.0 mi WSW 6.9 mph - 0.01 in   Mostly Cloudy
8:02 AM 82.4 °F 90.9 °F 77.0 °F 84% 30.02 in 10.0 mi WSW 4.6 mph - N/A   Mostly Cloudy
8:53 AM 81.0 °F 86.2 °F 73.9 °F 79% 30.04 in 10.0 mi WSW 11.5 mph - N/A   Overcast
9:00 AM 80.6 °F 85.4 °F 73.4 °F 79% 30.04 in 10.0 mi WSW 9.2 mph 18.4 mph N/A   Overcast
9:15 AM 82.4 °F 88.2 °F 73.4 °F 74% 30.04 in 10.0 mi West 9.2 mph - N/A   Mostly Cloudy
9:53 AM 86.0 °F 93.0 °F 73.0 °F 65% 30.05 in 10.0 mi WSW 12.7 mph - N/A   Clear
10:53 AM 87.1 °F 95.4 °F 73.9 °F 65% 30.06 in 10.0 mi SW 10.4 mph - N/A   Scattered Clouds
11:53 AM 89.1 °F 97.0 °F 73.0 °F 59% 30.04 in 10.0 mi SW 12.7 mph - N/A   Scattered Clouds
12:53 PM 90.0 °F 97.9 °F 73.0 °F 57% 30.01 in 10.0 mi SW 9.2 mph - N/A   Scattered Clouds
1:53 PM 91.0 °F 99.3 °F 73.0 °F 55% 29.99 in 10.0 mi WSW 12.7 mph 18.4 mph N/A   Clear
2:53 PM 91.0 °F 98.2 °F 72.0 °F 53% 29.98 in 10.0 mi SW 13.8 mph 21.9 mph N/A   Scattered Clouds
3:53 PM 91.0 °F 98.2 °F 72.0 °F 53% 29.96 in 10.0 mi SW 11.5 mph - N/A   Partly Cloudy
4:53 PM 88.0 °F 96.5 °F 73.9 °F 63% 29.96 in 10.0 mi SSW 11.5 mph - N/A   Partly Cloudy
5:53 PM 84.9 °F 92.1 °F 73.9 °F 69% 29.95 in 10.0 mi SSW 10.4 mph - N/A   Clear
6:53 PM 82.9 °F 89.4 °F 73.9 °F 74% 29.95 in 10.0 mi SW 12.7 mph - N/A   Clear
7:53 PM 82.0 °F 89.4 °F 75.9 °F 82% 29.96 in 10.0 mi SW 9.2 mph - N/A   Partly Cloudy
8:53 PM 82.0 °F 88.6 °F 75.0 °F 79% 29.96 in 10.0 mi SW 9.2 mph - N/A   Clear
9:53 PM 82.0 °F 89.4 °F 75.9 °F 82% 29.97 in 10.0 mi SW 9.2 mph - N/A   Clear
10:53 PM 82.0 °F 90.2 °F 77.0 °F 85% 29.97 in 10.0 mi SW 6.9 mph - N/A   Clear
11:53 PM 82.0 °F 90.2 °F 77.0 °F 85% 29.96 in 10.0 mi SW 8.1 mph - N/A   Clear